User: anonymous   Login
Location: Heilwood
(40.6210°N, 78.9150°W)
Time: 14:23:15
(UTC-04:00)
Language:

Iridium 4 Rocket - Orbit

View from above orbital plane
View from above orbital plane
View from above satellite
View from above satellite

Ground track
Ground track

The orbit data is extracted from the following two-line orbital elements,

1 24797U 97020F   17265.79296968  .00000116  00000-0  19709-4 0  9992
2 24797  86.8957 317.6362 0224981 352.5272 142.1014 14.44002521 72032
Epoch (UTC): 22 September 2017 19:01:52
Eccentricity: 0.0224981
inclination: 86.8957°
perigee height: 585 km
apogee height: 905 km
right ascension of ascending node: 317.6362°
argument of perigee: 352.5272°
revolutions per day: 14.44002521
mean anomaly at epoch: 142.1014°
orbit number at epoch: 7203

The dashed part of the orbit path shows where the satellite is in the earth's shadow,  

DLR